{"data":{"norad_id":63517,"intl_designator":"2025-071AA","name":"STARLINK-33803","alt_names":[],"object_type":"PAYLOAD","status":"ACTIVE","operator":null,"country":"US","launch_date":"2025-04-07","launch_site_code":"AFWTR","launch_vehicle":null,"mission":null,"orbit_class":"UNKNOWN","rcs_meters":null,"size_class":null,"mass_kg":null,"dimensions":null,"purposes":["comms"],"wikipedia_slug":null,"has_3d_model":false,"image_url":null,"decayed_at":null,"tle_current":{"epoch":"2026-05-24T06:34:59.284128Z","epoch_age_seconds":137754,"freshness":"FRESH","line1":"1 63517U 25071AA  26144.27429727  .00008348  00000+0  29363-3 0  9992","line2":"2 63517  53.1602 148.6928 0001003  90.0744 270.0371 15.30203120 64341","mean_motion":15.3020312,"eccentricity":0.0001003,"inclination_deg":53.1602,"raan_deg":148.6928,"arg_perigee_deg":90.0744,"mean_anomaly_deg":270.0371,"bstar":0.00029363,"rev_number":6434,"period_min":94.10515383082,"perigee_km":474.51836339934,"apogee_km":475.89314395573,"semimajor_km":6853.3427536775,"source":"CELESTRAK","updated_at":"2026-05-25T13:38:20.039180Z"}}}